INTELSAT 902 (IS-902) 1 26900U 01039A 26255.28437499 -.00000295 00000+0 00000+0 0 9991 2 26900 6.3307 70.6791 0004071 100.7704 232.1069 1.00272456 91560 INTELSAT 904 (IS-904) 1 27380U 02007A 26254.86033461 -.00000238 00000+0 00000+0 0 9991 2 27380 7.1312 68.1081 0002984 103.4307 97.5744 1.00270660 52635 DIRECTV 5 (TEMPO 1) 1 27426U 02023A 26255.12984764 -.00000070 00000+0 00000+0 0 9995 2 27426 5.0943 74.1827 0003212 106.5054 107.1066 1.00272484 88995 INTELSAT 905 (IS-905) 1 27438U 02027A 26255.12447428 .00000082 00000+0 00000+0 0 9995 2 27438 6.9664 68.7152 0003092 130.3969 59.6424 1.00271565 52230 GALAXY 3C (G-3C) 1 27445U 02030A 26255.13288098 -.00000166 00000+0 00000+0 0 9998 2 27445 3.9595 76.8674 0001430 43.8669 183.3973 1.00271855 47360 INTELSAT 906 (IS-906) 1 27513U 02041A 26255.09310082 .00000000 00000+0 00000+0 0 9996 2 27513 6.0168 71.8117 0002867 115.9318 261.0389 1.00272748 87901 GALAXY 13 (HORIZONS-1) 1 27954U 03044A 26255.32252887 .00000119 00000+0 00000+0 0 9994 2 27954 1.6376 82.6222 0001956 92.8866 141.9437 1.00273815 47449 INTELSAT 10-02 1 28358U 04022A 26255.29408171 -.00000026 00000+0 00000+0 0 9993 2 28358 0.0450 262.7124 0000119 54.6562 138.7996 1.00271087 81424 DIRECTV 8 1 28659U 05019A 26255.27068160 -.00000013 00000+0 00000+0 0 9998 2 28659 0.0051 146.9970 0002921 27.3270 155.3449 1.00272003 77942 GALAXY 28 (G-28) 1 28702U 05022A 26255.28888168 -.00000213 00000+0 00000+0 0 9992 2 28702 3.5164 77.7982 0001862 100.4848 249.9339 1.00272242 52840 GALAXY 16 (G-16) 1 29236U 06023A 26255.20334130 -.00000142 00000+0 00000+0 0 9995 2 29236 0.0131 161.0306 0002604 8.7865 155.5992 1.00271848 73841 DIRECTV 9S 1 29494U 06043A 26255.26919883 .00000055 00000+0 00000+0 0 9995 2 29494 2.6411 79.7592 0006044 195.7276 35.9132 0.99094990 52250 GALAXY 17 (G-17) 1 31307U 07016B 26255.27744162 -.00000219 00000+0 00000+0 0 9992 2 31307 3.1858 78.7382 0003032 120.0170 167.4091 1.00271794 70674 INTELSAT 11 (IS-11) 1 32253U 07044B 26255.02966054 -.00000120 00000+0 00000+0 0 9994 2 32253 3.7856 77.5491 0007316 127.4501 260.5293 0.99047630 69310 HORIZONS-2 1 32388U 07063B 26255.27960830 -.00000267 00000+0 00000+0 0 9999 2 32388 2.8207 79.4820 0001355 90.8607 207.8152 1.00273084 68687 DIRECTV 11 1 32729U 08013A 26255.20334130 -.00000141 00000+0 00000+0 0 9996 2 32729 0.0145 335.0698 0000151 85.1302 265.0303 1.00271786 46466 GALAXY 18 (G-18) 1 32951U 08024A 26255.62631880 .00000012 00000+0 00000+0 0 9999 2 32951 0.0100 148.9454 0002994 29.7691 275.3885 1.00272216 46724 GALAXY 19 (G-19) 1 33376U 08045A 26255.84515898 -.00000152 00000+0 00000+0 0 9994 2 33376 0.0359 246.0666 0002429 283.2275 29.8101 1.00272211 65780 FM-5 1 35493U 09034A 26255.06337402 -.00000216 00000+0 00000+0 0 9993 2 35493 0.0439 269.7388 0000694 141.7504 236.2500 1.00272692 47510 INTELSAT 14 (IS-14) 1 36097U 09064A 26255.28532833 -.00000288 00000+0 00000+0 0 9995 2 36097 0.1344 84.7729 0002368 84.2729 239.9741 1.00272145 61472 INTELSAT 15 (IS-15) 1 36106U 09067A 26255.14039039 .00000000 00000+0 00000+0 0 9995 2 36106 0.0190 165.7416 0002278 9.7281 311.3660 1.00269548 42106 DIRECTV 12 1 36131U 09075A 26255.20264796 -.00000118 00000+0 00000+0 0 9990 2 36131 0.0432 359.9449 0000410 110.7635 210.7332 1.00271707 47426 INTELSAT 16 (IS-16) 1 36397U 10006A 26253.13239311 -.00000266 00000+0 00000+0 0 9999 2 36397 0.0475 283.5929 0002428 255.8800 141.1811 1.00277212 60508 XM-5 1 37185U 10053A 26255.27146160 -.00000038 00000+0 00000+0 0 9990 2 37185 0.0700 272.1984 0000346 255.1763 166.4471 1.00272277 58356 INTELSAT 17 (IS-17) 1 37238U 10065B 26255.16468780 -.00000017 00000+0 00000+0 0 9992 2 37238 0.0045 163.3202 0002576 15.1560 297.9902 1.00271757 54129 INTELSAT 28 (IS-28) 1 37392U 11016A 26255.28792834 -.00000238 00000+0 00000+0 0 9998 2 37392 2.0252 81.4513 0003535 93.9006 247.9091 1.00273698 54155 INTELSAT 18 (IS-18) 1 37834U 11056A 26255.25183635 .00000039 00000+0 00000+0 0 9991 2 37834 0.0447 267.0885 0001999 274.3421 80.5009 1.00274025 54685 INTELSAT 22 (IS-22) 1 38098U 12011A 26255.20510983 -.00000073 00000+0 00000+0 0 9990 2 38098 0.0233 115.8839 0001739 54.9321 326.3353 1.00271774 8065 INTELSAT 19 (IS-19) 1 38356U 12030A 26255.33933578 .00000000 00000+0 00000+0 0 9990 2 38356 0.0188 164.9354 0003075 12.5546 102.0177 1.00270275 51327 INTELSAT 20 (IS-20) 1 38740U 12043A 26255.20510983 -.00000039 00000+0 00000+0 0 9991 2 38740 0.0165 146.4484 0001480 19.7882 327.3268 1.00271259 51627 INTELSAT 21 (IS-21) 1 38749U 12045A 26255.28272832 .00000000 00000+0 00000+0 0 9995 2 38749 0.0222 176.9513 0002392 10.3833 207.7416 1.00269997 51393 INTELSAT 23 (IS-23) 1 38867U 12057A 26255.21244133 -.00000300 00000+0 00000+0 0 9999 2 38867 0.0371 274.6457 0001786 332.9122 127.1239 1.00268194 50825 FM-6 1 39360U 13058A 26255.12863431 .00000000 00000+0 00000+0 0 9994 2 39360 0.0275 128.9680 0000867 132.4911 19.5877 1.00273543 46948 INTELSAT 30 (IS-30) 1 40271U 14062A 26255.20412130 -.00000166 00000+0 00000+0 0 9992 2 40271 0.0158 92.0614 0001545 311.8865 285.7043 1.00272978 7663 DIRECTV 14 1 40333U 14078B 26255.20334130 .00000000 00000+0 00000+0 0 9997 2 40333 0.0171 135.2520 0000635 303.3090 246.6166 1.00268393 42913 DIRECTV 15 1 40663U 15026A 26255.06008067 -.00000118 00000+0 00000+0 0 9999 2 40663 0.0155 111.1051 0000356 23.8027 134.9299 1.00273413 41337 SKY MEXICO-1 1 40664U 15026B 26255.27865497 -.00000249 00000+0 00000+0 0 9996 2 40664 0.0211 125.1452 0001941 45.2647 202.4045 1.00272633 41320 INTELSAT 34 (IS-34) 1 40874U 15039A 26254.99811374 .00000000 00000+0 00000+0 0 9990 2 40874 0.0122 154.6115 0000333 237.7415 262.4680 1.00270229 40501 INTELSAT 31 (IS-31) 1 41581U 16035A 26255.20412130 -.00000166 00000+0 00000+0 0 9999 2 41581 0.0266 239.6497 0001635 68.2702 21.7385 1.00273031 37558 INTELSAT 36 (IS-36) 1 41747U 16053A 26255.09396749 .00000000 00000+0 00000+0 0 9993 2 41747 0.0165 137.0890 0001848 215.4906 100.8566 1.00270490 36821 INTELSAT 32E (IS-32E) 1 41945U 17007B 26255.28567500 -.00000283 00000+0 00000+0 0 9993 2 41945 0.0230 241.2185 0000439 215.8694 313.8773 1.00273651 35098 INTELSAT 35E (IS-35E) 1 42818U 17041A 26255.28740834 -.00000253 00000+0 00000+0 0 9991 2 42818 0.0214 132.4279 0002061 43.7147 244.1293 1.00271117 33680 INTELSAT 37E (IS-37E) 1 42950U 17059A 26255.29070169 .00000000 00000+0 00000+0 0 9994 2 42950 0.0250 152.7439 0002656 16.4073 268.8030 1.00270460 32934 AZERSPACE 2 (IS-38) 1 43632U 18074A 26255.16061446 .00000000 00000+0 00000+0 0 9994 2 43632 0.0225 162.5541 0001871 1.0992 290.4586 1.00270318 29312 HORIZONS-3E 1 43633U 18074B 26255.11390091 -.00000046 00000+0 00000+0 0 9992 2 43633 0.0135 171.3269 0000476 27.6804 2.1227 1.00269242 29217 AT&T T-16 1 44333U 19034A 26255.13175432 -.00000130 00000+0 00000+0 0 9993 2 44333 0.0136 112.7011 0000541 300.8744 244.1466 1.00272416 26501 INTELSAT 39 (IS-39) 1 44476U 19049B 26255.16399447 .00000000 00000+0 00000+0 0 9999 2 44476 0.0227 173.0384 0000632 276.0626 23.0513 1.00269817 26000 GALAXY 30 (G-30) 1 46114U 20056C 26255.26946825 .00000000 00000+0 00000+0 0 9999 2 46114 0.0228 160.5572 0002207 10.2914 152.4352 1.00271549 22166 GALAXY 33 (G-33) 1 54026U 22128A 26255.26790825 .00000064 00000+0 00000+0 0 9999 2 54026 0.0151 101.3878 0001806 71.5833 141.7545 1.00272064 14617 GALAXY 34 (G-34) 1 54027U 22128B 26255.05488065 .00000000 00000+0 00000+0 0 9997 2 54027 0.0269 149.4956 0001585 40.1584 52.1744 1.00270786 14780 GALAXY 31 (G-31) 1 54243U 22153A 26255.27033492 -.00000002 00000+0 00000+0 0 9992 2 54243 0.0137 127.8418 0001238 42.6793 157.0806 1.00272242 8002 GALAXY 32 (G-32) 1 54244U 22153B 26255.20498796 -.00000189 00000+0 00000+0 0 9994 2 54244 0.0207 110.9856 0000310 308.7359 274.2947 1.00272798 14016 GALAXY 35 (G-35) 1 54741U 22170A 26255.27579495 -.00000177 00000+0 00000+0 0 9995 2 54741 0.0079 142.2261 0001921 25.9867 189.2520 1.00272810 13762 GALAXY 36 (G-36) 1 54742U 22170B 26255.27666162 -.00000200 00000+0 00000+0 0 9991 2 54742 0.0162 183.7043 0002029 301.2269 236.9591 1.00272091 13657 GALAXY 37 (G-37) 1 57493U 23112A 26255.26912159 .00000000 00000+0 00000+0 0 9990 2 57493 0.0230 172.1588 0002002 6.1002 142.8963 1.00270530 11418